{"data":{"norad_id":63248,"intl_designator":"2025-052AQ","name":"LEMUR-2-LIA-MARTIN","alt_names":[],"object_type":"PAYLOAD","status":"ACTIVE","operator":null,"country":"US","launch_date":"2025-03-15","launch_site_code":"AFWTR","launch_vehicle":null,"mission":null,"orbit_class":"UNKNOWN","rcs_meters":null,"size_class":null,"mass_kg":null,"dimensions":null,"purposes":["earth_obs"],"wikipedia_slug":null,"has_3d_model":false,"image_url":null,"decayed_at":null,"tle_current":{"epoch":"2026-05-25T03:48:24.920064Z","epoch_age_seconds":61401,"freshness":"FRESH","line1":"1 63248U 25052AQ  26145.15862176  .00004171  00000+0  36224-3 0  9993","line2":"2 63248  97.6911  37.9385 0001832 268.7856  91.3156 14.97555278 65233","mean_motion":14.97555278,"eccentricity":0.0001832,"inclination_deg":97.6911,"raan_deg":37.9385,"arg_perigee_deg":268.7856,"mean_anomaly_deg":91.3156,"bstar":0.00036224,"rev_number":6523,"period_min":96.15671762869,"perigee_km":573.17897315498,"apogee_km":575.72640201651,"semimajor_km":6952.5896875857,"source":"CELESTRAK","updated_at":"2026-05-25T13:38:13.539070Z"}}}